Regional Weather Roundup
Issued by NWS Lake Charles, LA

Current Version | Previous Version | Text Only | Print | Product List | Glossary On
Versions: 1 2 3 4 5 6 7 8 9 10 11 12 13 14 15 16 17 18 19 20 21 22 23 24 25 26 27 28 29 30 31 32 33 34 35 36 37 38 39 40 41 42 43 44 45 46 47 48 49 50
062
ASUS44 KLCH 301110
RWRLCH
REGIONAL WEATHER ROUNDUP
NATIONAL WEATHER SERVICE LAKE CHARLES LA
600 AM CDT SAT JUL 30 2016

Note: "fair" indicates few or no clouds below 12,000 feet with no
significant weather and/or obstructions to visibility.


ACROSS SOUTHEAST TEXAS

CITY           SKY/WX    TMP DP  RH WIND       PRES   REMARKS
BEAUMONT       CLEAR     76  75  97 NW3       30.00R
BEAUMONT CITY  FAIR      77  74  91 CALM      30.01S
ORANGE         MOSUNNY   75  73  93 CALM      30.03R FOG
JASPER         CLEAR     74  72  95 CALM      30.04R
$$

ACROSS CENTRAL LOUISIANA

CITY           SKY/WX    TMP DP  RH WIND       PRES   REMARKS
LEESVILLE      CLEAR     76  74  95 SW3       30.01S
FULLERTON      FAIR      76  74  93 CALM      29.99R
ALEXANDRIA INT CLOUDY    76  75  97 CALM      29.99R
ESLER FIELD    CLOUDY    75  75 100 CALM      30.01R
DERIDDER       FAIR      76  74  95 CALM      30.03S
OAKDALE        SUNNY     71  70  98 CALM      30.01S
OPELOUSAS      FAIR      73  72  99 CALM      30.01S
$$

ACROSS SOUTHWEST AND SOUTH CENTRAL LOUISIANA

CITY           SKY/WX    TMP DP  RH WIND       PRES   REMARKS
SULPHUR        SUNNY     78  77  96 CALM      30.02R
LAKE CHARLES   CLEAR     76  74  93 CALM      30.01R
CHENNAULT INT  NOT AVBL
CAMERON PHI    NOT AVBL
DEQUINCY       FAIR      73  73 100 CALM      30.02R
JENNINGS       FAIR      75  75 100 MISG      30.02R
LAFAYETTE      CLEAR     78  76  93 CALM      30.02R
NEW IBERIA     CLEAR     77  75  93 CALM      30.02R
ABBEVILLE      FAIR      75  75 100 CALM      30.02R
PATTERSON      CLEAR     76  76 100 CALM      30.02R
SALT POINT       N/A     84  74  71 VRB6      30.00R
$$

SELECTED SITES ACROSS THE REGION

CITY           SKY/WX    TMP DP  RH WIND       PRES   REMARKS
HOUSTON BUSH   PTCLDY    77  75  93 CALM      30.01S
HOUSTON HOBBY  PTCLDY    79  76  90 N3        30.00S
GALVESTON      PTCLDY    81  77  88 SW3       30.01S
COLLEGE STAT   CLEAR     76  75  97 CALM      30.01S
CONROE         CLEAR     74  73  97 CALM      30.01F
HUNTSVILLE     CLEAR     76  74  93 S3        30.02S
LUFKIN         CLOUDY    76  75  97 W3        30.00S
SHREVEPORT     PTCLDY    76  74  93 CALM      29.99R
MONROE         PTCLDY    75  74  96 CALM      30.01R
NATCHEZ MS     CLEAR     73  72  94 CALM      30.02R
BATON ROUGE    CLEAR     76  72  87 CALM      30.02R
N.O. INTL ARPT PTCLDY    80  75  84 CALM      30.01S
SLIDELL        CLEAR     73  72  96 CALM      30.01R
$$

MARINE REPORTS

STATION/POSITION TIME  SKY/WX   TEMP    WIND        PRES    VSBY
                                AIR SEA DIR/SP/G
                 (UTC)          (F)     (DEG/KT/KT) (MB)    (MI)
BUOY 30 S HIGH I 1050            85 87  240/  6/  8 1015.9R
WVE H/P(F/S)=  2/ 4

SEA RIM ST PARK  1100            83     240/  6/  7 1016.5F
PORT ARTHUR      1000               88  220/  4/  5 1016.0F
SABINE PASS N    1000            82 89  260/  3/  4 1017.4R
TEXAS POINT      NOT AVBL
CALCASIEU PASS   1000            85 86  230/  8/ 11 1015.3R
LK CHARLES BEACH 1000            79 88              1016.3F
MARSH ISLAND     NOT AVBL
FRESH WATER LOCK 1000            84 89  190/  5/  8 1016.7R
AMERADA PASS     1000            83 88  180/  2/  3 1015.9R
$$




USA.gov is the U.S. government's official web portal to all federal, state and local government web resources and services.